Weather History for LIVP - December, 2013

Change the Weather History Date:

Friday, December 27, 2013

  Actual Average (LIVR) Record (LIVR)
Temperature  
Mean Temperature 26 °F -  
Max Temperature 32 °F 28 °F - (-1)
Min Temperature 21 °F 19 °F - (-1)
Degree Days  
Heating Degree Days 38    
Moisture  
Dew Point 21 °F    
Average Humidity 75    
Maximum Humidity 86    
Minimum Humidity 58    
Precipitation  
Precipitation 0.00 in 0.04 in - ()
Sea Level Pressure  
Sea Level Pressure 29.69 in    
Wind  
Wind Speed 15 mph ()    
Max Wind Speed 31 mph    
Max Gust Speed -    
Visibility 9.6 miles    
Events Snow    
Averages and records for this station are not official NWS values.
T = Trace of Precipitation, MM = Missing Value Source: Averaged Metar Reports

Daily Weather History Graph

Daily Weather History Graph

Search for Another Location

Airport or City:

Trip Planner

Search our weather history database for the weather conditions in past years. The results will help you decide how hot, cold, wet, or windy it might be!

Date:

Astronomy

Dec. 27, 2013 Rise Set
Actual Time 7:57 AM CET 4:36 PM CET
Civil Twilight 7:22 AM CET 5:11 PM CET
Nautical Twilight 6:44 AM CET 5:49 PM CET
Astronomical Twilight 6:08 AM CET 6:25 PM CET
Moon 1:59 AM CET (12/27) 12:47 PM CET (12/27)
Length of Visible Light 9h 48m
Length of Day
8h 38m
Waning Crescent, 31% of the Moon is Illuminated
Dec 27
Waning Crescent
Jan 1
New
Jan 8
First Quarter
Jan 16
Full
Jan 24
Last Quarter

Hourly Weather History & Observations

Time (CET) Temp. Windchill Dew Point Humidity Pressure Visibility Wind Dir Wind Speed Gust Speed Precip Events Conditions
12:00 AM 25 °F - 21 °F 77%  in 9 mi North 18.4 mph - -   Partly Cloudy
12:55 AM 24.8 °F 9.6 °F 19.4 °F 80% 29.44 in 6.2 mi North 23.0 mph - N/A Snow Low Drifting Snow
1:00 AM 24 °F - 20 °F 78%  in 19 mi North 23.0 mph - - Snow Low Drifting Snow
1:55 AM 23.0 °F 6.6 °F 19.4 °F 86% 29.47 in 6.2 mi NNE 25.3 mph - N/A Snow Low Drifting Snow
2:00 AM 23 °F - 19 °F 79%  in 19 mi NNE 25.3 mph - - Snow Low Drifting Snow
2:55 AM 23.0 °F 5.1 °F 19.4 °F 86% 29.47 in 6.2 mi North 31.1 mph - N/A Snow Low Drifting Snow
3:00 AM 23 °F - 19 °F 77%  in 19 mi North 31.1 mph - - Snow Low Drifting Snow
3:55 AM 23.0 °F 5.7 °F 19.4 °F 86% 29.50 in 6.2 mi North 28.8 mph - N/A Snow Low Drifting Snow
4:00 AM 23 °F - 19 °F 77%  in 19 mi North 28.8 mph - - Snow Low Drifting Snow
4:55 AM 23.0 °F 8.0 °F 19.4 °F 86% 29.53 in 6.2 mi North 20.7 mph - N/A Snow Light Low Drifting Snow
5:00 AM 23 °F - 19 °F 77%  in 28 mi North 20.7 mph - - Snow Low Drifting Snow
5:55 AM 21.2 °F 8.3 °F 17.6 °F 86% 29.56 in 6.2 mi North 13.8 mph - N/A Snow Light Low Drifting Snow
6:00 AM 22 °F - 18 °F 79%  in 28 mi North 13.8 mph - - Snow Low Drifting Snow
6:55 AM 21.2 °F 8.3 °F 17.6 °F 86% 29.59 in - North 13.8 mph - N/A   Clear
7:00 AM 22 °F - 18 °F 77%  in 31 mi North 13.8 mph - -  
7:55 AM 23.0 °F 13.1 °F 17.6 °F 80% 29.62 in - North 9.2 mph - N/A   Clear
8:00 AM 22 °F - 18 °F 79%  in 37 mi North 9.2 mph - -  
8:55 AM 23.0 °F 11.7 °F 17.6 °F 80% 29.65 in - North 11.5 mph - N/A   Clear
9:00 AM 23 °F - 18 °F 72%  in 37 mi North 11.5 mph - -  
9:55 AM 24.8 °F 15.3 °F 17.6 °F 74% 29.68 in 6.2 mi North 9.2 mph - N/A   Partly Cloudy
10:00 AM 24 °F - 18 °F 67%  in 40 mi North 9.2 mph - -   Scattered Clouds
10:55 AM 26.6 °F 21.2 °F 17.6 °F 69% 29.74 in 6.2 mi NNE 4.6 mph - N/A   Partly Cloudy
11:00 AM 27 °F - 18 °F 58%  in 44 mi NNE 4.6 mph - -   Scattered Clouds
11:55 AM 28.4 °F 22.2 °F 19.4 °F 69% 29.74 in 6.2 mi SSW 5.8 mph - N/A   Partly Cloudy
12:00 PM 28 °F - 20 °F 62%  in 44 mi SSW 5.8 mph - -   Scattered Clouds
12:55 PM 28.4 °F 22.2 °F 23.0 °F 80% 29.74 in 6.2 mi South 5.8 mph - N/A   Partly Cloudy
1:00 PM 28 °F - 22 °F 70%  in 44 mi South 5.8 mph - -   Scattered Clouds
1:55 PM 30.2 °F 23.4 °F 23.0 °F 75% 29.74 in 6.2 mi SSW 6.9 mph - N/A   Partly Cloudy
2:00 PM 30 °F - 24 °F 70%  in 37 mi SSW 6.9 mph - -   Scattered Clouds
2:55 PM 30.2 °F 24.3 °F 24.8 °F 80% 29.77 in - SSW 5.8 mph - N/A   Clear
3:00 PM 30 °F - 24 °F 70%  in 37 mi SSW 5.8 mph - -   Scattered Clouds
3:55 PM 30.2 °F 25.4 °F 24.8 °F 80% 29.80 in - SSW 4.6 mph - N/A   Clear
4:00 PM 31 °F - 24 °F 68%  in 37 mi SSW 4.6 mph - -  
4:55 PM 32.0 °F 25.6 °F 24.8 °F 75% 29.80 in - SSW 6.9 mph - N/A   Clear
5:00 PM 31 °F - 25 °F 70%  in 37 mi SSW 6.9 mph - -  
5:55 PM 32.0 °F 25.6 °F 24.8 °F 75% 29.80 in - SSW 6.9 mph - N/A   Clear
6:00 PM 32 °F - 26 °F 68%  in 31 mi SSW 6.9 mph - -  
6:55 PM 32.0 °F 24.2 °F 24.8 °F 75% 29.80 in - SSW 9.2 mph - N/A   Clear
7:00 PM 32 °F - 26 °F 68%  in 31 mi SSW 9.2 mph - -  
7:55 PM 32.0 °F 24.2 °F 24.8 °F 75% 29.83 in - SSW 9.2 mph - N/A   Clear
8:00 PM 32 °F - 26 °F 68%  in 31 mi SSW 9.2 mph - -  
8:55 PM 32.0 °F 24.2 °F 24.8 °F 75% 29.83 in - SSW 9.2 mph - N/A   Clear
9:00 PM 31 °F - 25 °F 71%  in 31 mi SSW 9.2 mph - -  
9:55 PM 30.2 °F 20.8 °F 24.8 °F 80% 29.83 in - SSW 11.5 mph - N/A   Clear
10:00 PM 31 °F - 24 °F 68%  in 31 mi SSW 11.5 mph - -  
10:55 PM 30.2 °F 18.5 °F 24.8 °F 80% 29.86 in - SSW 17.3 mph - N/A   Clear
11:00 PM 31 °F - 24 °F 68%  in 31 mi SSW 17.3 mph - -  
11:55 PM 30.2 °F 17.4 °F 24.8 °F 80% 29.86 in - SSW 20.7 mph - N/A   Clear